This demonstration page uses our WeatherBlox Daily Observations layout. Learn more.

39.29038, -76.61219

Hourly Observations for July 13, 2015

Temp ( °F °C ) Dew Point ( °F °C ) Humidity (%) Winds ( mph kmh ) Pressure ( in mb ) Visibility ( mi km ) Precip ( " mm )
12:54 am 00:54 Mostly Clear 79 26 63 17 58 58 undefined N/A 29.97 1015 N/A 0 0
1:54 am 01:54 Cloudy 79 26 63 17 58 58 undefined N/A 29.97 1015 N/A 0 0
2:54 am 02:54 Partly Cloudy 77 25 63 17 61 61 undefined N/A 29.94 1014 N/A 0 0
3:54 am 03:54 undefined 75 24 63 17 65 65 undefined N/A 29.91 1013 N/A 0 0
4:54 am 04:54 undefined 75 24 63 17 65 65 undefined N/A 29.91 1013 N/A 0 0
5:54 am 05:54 undefined 75 24 63 17 65 65 undefined N/A 29.91 1013 N/A 0 0
6:54 am 06:54 Mostly Cloudy 77 25 64 18 65 65 undefined N/A 29.91 1013 N/A 0 0
7:54 am 07:54 Mostly Sunny 79 26 64 18 61 61 undefined N/A 29.91 1013 N/A 0 0
8:54 am 08:54 undefined 79 26 64 18 61 61 undefined N/A 29.91 1013 N/A 0 0
9:54 am 09:54 Mostly Sunny 81 27 64 18 58 58 undefined N/A 29.91 1013 N/A 0 0
10:54 am 10:54 undefined 82 28 64 18 55 55 undefined N/A 29.91 1013 N/A 0 0
11:54 am 11:54 undefined 82 28 63 17 51 51 undefined N/A 29.91 1013 N/A 0 0
12:54 pm 12:54 Cloudy 81 27 64 18 58 58 undefined N/A 29.91 1013 N/A 0 0
1:54 pm 13:54 Sunny 82 28 61 16 48 48 undefined N/A 29.88 1012 N/A 0 0
2:54 pm 14:54 Mostly Sunny 82 28 63 17 51 51 undefined N/A 29.85 1011 N/A 0 0
3:54 pm 15:54 undefined 82 28 64 18 55 55 undefined N/A 29.83 1010 N/A 0 0
4:54 pm 16:54 undefined 81 27 66 19 62 62 undefined N/A 29.83 1010 N/A 0 0
5:54 pm 17:54 Sunny 79 26 68 20 70 70 undefined N/A 29.8 1009 N/A 0 0
6:54 pm 18:54 Mostly Sunny 79 26 64 18 61 61 undefined N/A 29.8 1009 N/A 0 0
7:54 pm 19:54 Mostly Cloudy 79 26 63 17 58 58 undefined N/A 29.8 1009 N/A 0 0
8:54 pm 20:54 Mostly Clear 79 26 64 18 61 61 undefined N/A 29.8 1009 N/A 0 0
9:54 pm 21:54 undefined 79 26 66 19 65 65 undefined N/A 29.77 1008 N/A 0 0
10:54 pm 22:54 undefined 79 26 70 21 74 74 undefined N/A 29.77 1008 N/A 0 0
11:54 pm 23:54 Mostly Clear 75 24 72 22 89 89 undefined N/A 29.74 1007 N/A 0.02 0.508

Powered by AerisWeather